カタログに戻る

USA 171

運用中軍事GEO
NORAD 27937·PAYLOAD·🇺🇸 United States

打ち上げ Sep 9, 2003 から Cape Canaveral Space Force Station

Loading…

TLE

最新Source: Mike McCants

元期: Sep 14, 2026, 22:00 UTC

1 27937U 03041A   26257.91730201  .00000000  00000-0  00000-0 0    04
2 27937  15.2216  31.8803 0033464 258.2136 101.4179  1.00270000 14566

AllMySatでUSA 171をリアルタイム追跡

Download on the App Store